Dansville, NY

5:56 PM EST on December 13, 2017 (GMT -0500)
Dansville Municipal

Weather History for KDSV - July, 2013

Change the Weather History Date:

Sunday, July 7, 2013

  Actual Average Record
Temperature  
Mean Temperature 78 °F -  
Max Temperature 86 °F 81 °F 97 °F (1952)
Min Temperature 72 °F 56 °F 42 °F (1961)
Cooling Degree Days 13    
Growing Degree Days 28 (Base 50)    
Moisture  
Dew Point 68 °F    
Average Humidity 74    
Maximum Humidity 97    
Minimum Humidity 53    
Precipitation  
Precipitation 0.14 in - - ()
Sea Level Pressure  
Sea Level Pressure 30.05 in    
Wind  
Wind Speed 3 mph (West)    
Max Wind Speed 7 mph    
Max Gust Speed -    
Visibility 10 miles    
Events Rain , Thunderstorm    
Averages and records for this station are not official NWS values.
T = Trace of Precipitation, MM = Missing Value Source: NWS Daily Summary

Daily Weather History Graph

Daily Weather History Graph

Search for Another Location

Airport or City:

Trip Planner

Search our weather history database for the weather conditions in past years. The results will help you decide how hot, cold, wet, or windy it might be!

Date:

Astronomy

Jul. 07, 2013 Rise Set
Actual Time 5:40 AM EDT 8:50 PM EDT
Civil Twilight 5:06 AM EDT 9:24 PM EDT
Nautical Twilight 4:22 AM EDT 10:08 PM EDT
Astronomical Twilight 3:28 AM EDT 11:01 PM EDT
Moon 5:16 AM EDT (7/7) 8:11 PM EDT (7/7)
Length of Visible Light 16h 18m
Length of Day
15h 09m
Waning Crescent, 0% of the Moon is Illuminated
Jul 7
Waning Crescent
Jul 8
New
Jul 15
First Quarter
Jul 22
Full
Jul 29
Last Quarter

Hourly Weather History & Observations

Time (EDT) Temp. Heat Index Dew Point Humidity Pressure Visibility Wind Dir Wind Speed Gust Speed Precip Events Conditions
12:54 AM 75.0 °F - 72.0 °F 90% 30.10 in 10.0 mi Calm Calm - 0.00 in   Overcast
1:54 AM 73.9 °F - 71.1 °F 91% 30.08 in 10.0 mi Calm Calm - N/A   Overcast
2:54 AM 73.9 °F - 72.0 °F 93% 30.09 in 6.0 mi Calm Calm - 0.02 in Rain , Thunderstorm Light Rain
3:54 AM 73.0 °F - 71.1 °F 93% 30.09 in 8.0 mi Calm Calm - 0.11 in Rain , Thunderstorm Light Thunderstorms and Rain
4:11 AM 73.4 °F - 71.6 °F 94% 30.07 in 10.0 mi Calm Calm - 0.00 in   Overcast
4:54 AM 72.0 °F - 71.1 °F 97% 30.06 in 6.0 mi SSE 5.8 mph - 0.01 in   Clear
5:54 AM 72.0 °F - 70.0 °F 93% 30.06 in 9.0 mi SE 6.9 mph - N/A   Partly Cloudy
6:54 AM 73.0 °F - 70.0 °F 90% 30.07 in 10.0 mi SE 5.8 mph - N/A   Unknown
7:54 AM 73.9 °F - 71.1 °F 91% 30.08 in 10.0 mi SE 6.9 mph - N/A   Partly Cloudy
8:54 AM 79.0 °F - 71.1 °F 77% 30.08 in 10.0 mi Variable 4.6 mph - N/A   Clear
9:54 AM 80.1 °F 82.3 °F 66.9 °F 64% 30.07 in 10.0 mi WNW 4.6 mph - N/A   Scattered Clouds
10:54 AM 82.0 °F 84.1 °F 66.0 °F 58% 30.07 in 10.0 mi WNW 4.6 mph - N/A   Scattered Clouds
11:54 AM 82.9 °F 85.4 °F 66.9 °F 58% 30.06 in 10.0 mi WNW 6.9 mph - N/A   Mostly Cloudy
12:54 PM 84.0 °F 86.3 °F 66.0 °F 55% 30.05 in 10.0 mi NW 5.8 mph - N/A   Overcast
1:54 PM 84.0 °F 85.8 °F 64.9 °F 53% 30.04 in 10.0 mi Variable 4.6 mph - N/A   Mostly Cloudy
2:54 PM 84.9 °F 87.1 °F 66.0 °F 53% 30.02 in 10.0 mi NW 6.9 mph - N/A   Scattered Clouds
3:54 PM 84.9 °F 87.6 °F 66.9 °F 55% 30.00 in 10.0 mi Variable 4.6 mph - N/A   Overcast
4:54 PM 84.0 °F 86.5 °F 66.9 °F 56% 29.98 in 10.0 mi Variable 4.6 mph - N/A   Mostly Cloudy
5:54 PM 82.9 °F 85.4 °F 66.9 °F 58% 29.97 in 10.0 mi West 4.6 mph - N/A   Partly Cloudy
6:54 PM 81.0 °F 83.3 °F 66.9 °F 62% 29.99 in 10.0 mi Calm Calm - N/A   Mostly Cloudy
7:54 PM 79.0 °F - 68.0 °F 69% 29.99 in 10.0 mi Calm Calm - N/A   Clear
8:54 PM 75.9 °F - 69.1 °F 79% 30.00 in 10.0 mi NW 5.8 mph - N/A   Mostly Cloudy
9:54 PM 75.0 °F - 66.9 °F 76% 30.03 in 10.0 mi Calm Calm - N/A   Scattered Clouds
10:54 PM 73.9 °F - 64.9 °F 73% 30.04 in 10.0 mi Calm Calm - N/A   Overcast
11:54 PM 72.0 °F - 64.0 °F 76% 30.04 in 10.0 mi Calm Calm - N/A   Clear